User: anonymous   Login
Location: NJAA Observatory
(40.6819°N, 74.8979°W)
Time: 12:20:34
(UTC-05:00)
Language:

Cosmos 2237 Rocket - Orbit

View from above orbital plane
View from above orbital plane
View from above satellite
View from above satellite

Ground track
Ground track

The orbit data is extracted from the following two-line orbital elements,

1 22566U 93016B   14350.95014559  .00000394  00000-0  22879-3 0  2294
2 22566 071.0059 183.7560 0008348 080.0191 280.1873 14.14865940122092
Epoch (UTC): 16 December 2014 22:48:12
Eccentricity: 0.0008348
inclination: 71.0059°
perigee height: 837 km
apogee height: 849 km
right ascension of ascending node: 183.7560°
argument of perigee: 80.0191°
revolutions per day: 14.14865940
mean anomaly at epoch: 280.1873°
orbit number at epoch: 12209

The dashed part of the orbit path shows where the satellite is in the earth's shadow,  

DLR